Temp
88 89 89 89 89 89 89 89 91 90 89 92 92 91 91 91 91 91 92 92 91 91 90 89 89 89 90 90 89 90 90 89 91 91 90 90 90 91 94 92 91 92
88 88 88 90 88 88 88 90 90 90 89 88 90 91 91 91 91 91 90 90 90 91 90 91 90 89 89 91 89 90 89 90 89 95 90 89 90 91 92 92 93 92
89 89 89 89 91 90 93 91 90 90 92 92 92 91 92 92 91 90 90 90 91 93 90 90 90 89 90 90 89 89 91 88 89 93 90 89 91 90 91 94 95 93
88 89 91 92 92 92 92 91 91 90 92 92 92 94 93 95 91 91 90 89 90 90 91 91 90 92 91 91 89 90 91 89 91 90 89 90 90 92 93 93 94 94
90 89 91 92 92 91 91 90 92 93 92 92 93 92 90 89 90 91 90 90 89 90 90 90 90 91 90 90 89 89 90 91 90 89 89 89 90 91 93 93 91 91
90 89 89 91 90 90 92 92 91 93 93 94 92 94 93 92 92 92 92 92 93 92 93 93 92 92 92 90 89 89 90 92 92 89 88 88 91 93 95 92 90 89
91 90 90 92 93 91 91 92 92 92 94 94 93 93 93 93 92 92 91 92 93 92 93 91 90 90 91 90 89 88 89 88 89 88 87 89 89 89 92 91 89 89
91 92 91 92 93 93 92 93 93 92 92 92 93 93 93 94 92 94 93 92 92 91 91 92 90 89 92 92 90 88 89 93 91 88 87 88 88 88 89 92 90 88
92 92 92 92 93 94 95 96 95 93 93 92 94 95 94 94 94 95 91 91 91 90 89 90 89 91 91 91 90 88 89 91 93 91 89 89 89 88 90 90 90 89
91 92 94 94 94 94 95 96 97 96 94 94 95 96 95 93 94 94 92 90 90 90 89 89 89 91 91 91 90 90 90 89 89 90 91 90 90 90 91 91 91 89
92 93 93 93 94 96 96 96 97 98 96 95 96 96 96 95 92 93 91 90 93 91 90 89 91 91 90 92 92 92 91 91 91 90 90 90 91 90 90 90 90 90
90 92 93 93 94 96 97 97 97 96 97 97 97 95 95 96 94 94 93 91 91 92 92 91 90 91 90 91 94 94 93 93 93 92 92 92 92 92 92 92 92 91
88 90 91 94 94 94 96 96 97 97 97 97 96 96 96 96 96 94 93 93 92 93 93 92 91 92 90 90 92 93 92 92 94 94 93 93 94 94 95 95 94 94
87 89 90 91 93 92 93 95 96 96 95 96 96 95 96 96 97 97 96 95 94 94 94 94 92 92 91 90 91 93 93 93 92 93 94 94 94 94 95 97 96 96
88 89 89 89 90 90 90 91 93 93 93 94 93 94 97 97 97 97 96 95 95 94 94 95 96 94 94 92 90 90 92 93 92 93 93 93 94 96 96 96 97 98
87 87 87 87 87 88 88 89 91 92 94 93 92 93 93 93 93 94 95 95 93 93 93 95 95 96 91 84 84 91 92 94 94 92 92 92 91 92 95 96 98 98
85 86 85 84 85 86 86 86 87 89 89 89 90 90 90 90 90 91 93 94 95 94 93 95 96 86 72 74 75 76 87 91 91 91 91 91 92 91 91 94 96 97
85 85 84 84 84 85 85 85 85 85 85 85 87 89 88 90 90 90 90 93 94 95 95 95 90 67 65 65 69 71 76 87 93 93 94 93 94 94 93 94 95 97
82 83 83 83 82 83 84 84 84 83 84 84 85 86 88 87 87 89 89 90 92 90 92 92 87 67 63 65 65 66 68 76 92 94 94 95 94 94 94 92 93 93
78 78 78 78 78 80 82 82 80 78 79 79 81 83 84 86 89 87 88 88 89 89 87 85 79 66 61 61 64 63 66 71 89 93 94 94 93 93 95 94 93 94
78 78 78 78 77 77 77 75 74 74 74 73 72 75 81 83 86 87 87 87 89 88 87 84 77 59 60 60 61 62 62 70 89 95 96 95 94 93 91 91 91 94
79 78 77 77 77 76 74 72 74 75 73 72 71 73 78 82 83 85 85 86 86 86 85 82 77 57 58 59 58 62 63 81 87 89 91 92 92 90 90 89 90 90
76 76 75 76 75 74 73 72 72 73 72 73 73 75 76 77 80 81 82 82 82 81 81 79 77 62 56 56 57 57 70 86 87 87 87 88 89 88 89 90 91 89
73 73 73 73 72 71 71 72 72 72 72 73 73 73 74 75 76 77 78 79 78 78 81 79 77 64 54 55 56 55 67 82 86 85 86 86 87 89 91 90 83 80
74 74 73 72 71 71 72 72 73 73 72 71 70 71 71 72 73 74 73 74 76 78 76 78 77 69 56 55 54 55 67 82 83 82 79 83 85 85 86 86 80 76
73 72 72 71 70 70 72 71 71 70 69 69 69 69 69 69 70 71 71 71 74 75 75 76 73 71 63 53 53 55 57 75 80 81 81 80 81 78 79 81 81 77
MSLP
1020.07 1020.15 1020.39 1020.55 1020.63 1020.63 1020.71 1020.91 1020.83 1021.03 1021.15 1020.95 1021.07 1021.07 1021.15 1021.11 1021.03 1021.19 1021.19 1021.27 1021.43 1021.59 1021.67 1021.79 1021.83 1021.91 1021.87 1021.91 1021.95 1021.99 1022.03 1022.19 1021.99 1022.03 1022.23 1022.27 1022.31 1022.27 1022.19 1022.23 1022.27 1022.19
1020.03 1020.07 1020.19 1020.27 1020.51 1020.59 1020.67 1020.63 1020.75 1020.87 1021.03 1021.11 1020.95 1020.87 1020.91 1020.99 1021.07 1021.15 1021.35 1021.47 1021.51 1021.55 1021.59 1021.67 1021.79 1021.83 1021.91 1021.83 1021.99 1022.11 1022.19 1022.11 1022.31 1021.59 1022.19 1022.39 1022.35 1022.23 1022.19 1022.11 1022.11 1021.99
1019.83 1020.03 1020.23 1020.39 1020.35 1020.51 1020.35 1020.39 1020.51 1020.67 1020.67 1020.63 1020.67 1020.83 1020.87 1020.87 1021.03 1021.11 1021.19 1021.35 1021.43 1021.35 1021.55 1021.63 1021.71 1021.79 1021.79 1021.83 1021.95 1022.07 1022.11 1022.27 1022.35 1021.75 1021.99 1022.31 1022.11 1022.31 1022.15 1021.83 1021.75 1021.87
1019.71 1019.75 1019.87 1019.95 1019.91 1020.15 1020.19 1020.35 1020.55 1020.63 1020.43 1020.67 1020.79 1020.55 1020.71 1020.55 1020.83 1021.07 1021.19 1021.31 1021.39 1021.47 1021.35 1021.39 1021.55 1021.55 1021.63 1021.71 1021.87 1021.95 1021.91 1022.11 1021.91 1021.91 1022.19 1022.11 1022.07 1021.99 1021.91 1021.79 1021.79 1021.79
1019.47 1019.63 1019.63 1019.67 1019.67 1019.83 1019.99 1020.35 1020.39 1020.43 1020.55 1020.51 1020.43 1020.51 1020.75 1020.91 1020.99 1020.99 1021.11 1021.23 1021.35 1021.39 1021.35 1021.47 1021.43 1021.47 1021.55 1021.63 1021.79 1021.99 1021.91 1021.99 1021.87 1022.03 1022.27 1022.35 1022.11 1022.03 1021.83 1021.75 1022.07 1022.23
1019.15 1019.31 1019.47 1019.59 1019.71 1019.95 1020.07 1020.19 1020.31 1020.23 1020.35 1020.39 1020.51 1020.27 1020.47 1020.71 1020.79 1020.79 1020.91 1021.07 1021.07 1021.15 1021.11 1021.15 1021.31 1021.31 1021.31 1021.55 1021.67 1021.83 1021.83 1021.83 1021.59 1021.99 1022.27 1022.39 1022.11 1021.67 1021.59 1021.79 1022.11 1022.31
1019.11 1019.27 1019.43 1019.43 1019.55 1019.71 1019.95 1019.95 1019.99 1020.07 1020.07 1019.91 1020.03 1020.27 1020.19 1020.43 1020.67 1020.71 1020.79 1020.87 1020.83 1020.95 1020.99 1021.11 1021.31 1021.35 1021.27 1021.39 1021.67 1021.83 1021.83 1021.87 1021.83 1021.99 1022.27 1022.15 1022.11 1022.07 1021.75 1021.87 1022.11 1022.27
1018.79 1018.87 1019.11 1019.19 1019.39 1019.47 1019.75 1019.75 1019.83 1019.95 1019.91 1019.95 1020.15 1020.15 1020.07 1020.23 1020.43 1020.39 1020.55 1020.75 1020.87 1020.95 1020.99 1021.03 1021.23 1021.39 1021.27 1021.31 1021.59 1021.79 1021.83 1021.55 1021.75 1021.95 1022.15 1022.15 1022.03 1022.19 1022.03 1021.79 1021.91 1022.23
1018.47 1018.67 1018.83 1019.07 1019.19 1019.19 1019.31 1019.27 1019.43 1019.63 1019.59 1019.91 1019.91 1019.75 1019.87 1019.91 1020.07 1020.15 1020.47 1020.63 1020.79 1020.87 1021.07 1021.11 1021.19 1021.19 1021.15 1021.23 1021.43 1021.67 1021.79 1021.55 1021.35 1021.63 1021.87 1021.99 1022.03 1022.03 1021.91 1021.71 1021.91 1021.99
1018.43 1018.43 1018.55 1018.71 1018.95 1018.91 1019.03 1018.91 1018.79 1019.03 1019.23 1019.55 1019.59 1019.39 1019.67 1019.83 1019.79 1019.95 1020.27 1020.63 1020.79 1020.91 1021.03 1021.07 1021.11 1021.07 1021.03 1021.03 1021.31 1021.39 1021.51 1021.63 1021.59 1021.55 1021.55 1021.63 1021.71 1021.67 1021.63 1021.63 1021.71 1021.83
1018.19 1018.23 1018.47 1018.55 1018.55 1018.43 1018.63 1018.67 1018.71 1018.67 1018.79 1019.15 1019.23 1019.35 1019.35 1019.55 1019.91 1019.87 1020.19 1020.51 1020.63 1020.71 1020.83 1020.91 1020.87 1020.87 1021.03 1020.87 1020.83 1020.83 1021.07 1021.19 1021.27 1021.35 1021.39 1021.43 1021.39 1021.43 1021.39 1021.47 1021.55 1021.59
1018.03 1018.03 1018.23 1018.35 1018.39 1018.23 1018.27 1018.31 1018.43 1018.67 1018.67 1018.75 1018.87 1019.19 1019.31 1019.39 1019.71 1019.83 1019.99 1020.39 1020.35 1020.35 1020.47 1020.59 1020.59 1020.67 1020.79 1020.79 1020.67 1020.59 1020.75 1020.83 1020.83 1020.99 1021.03 1021.07 1021.07 1021.03 1021.07 1021.03 1021.15 1021.27
1018.07 1018.07 1018.03 1018.03 1018.19 1018.19 1017.99 1018.07 1018.27 1018.31 1018.55 1018.75 1018.71 1018.95 1019.15 1019.27 1019.31 1019.63 1019.71 1019.91 1020.15 1020.15 1020.19 1020.27 1020.43 1020.43 1020.59 1020.67 1020.63 1020.51 1020.55 1020.71 1020.63 1020.63 1020.71 1020.71 1020.63 1020.67 1020.55 1020.51 1020.63 1020.71
1017.87 1017.91 1017.95 1017.95 1017.95 1018.07 1018.19 1018.15 1018.11 1018.23 1018.39 1018.51 1018.59 1018.91 1019.03 1019.07 1019.15 1019.27 1019.39 1019.55 1019.75 1019.87 1019.91 1019.87 1020.15 1020.35 1020.43 1020.51 1020.47 1020.43 1020.39 1020.55 1020.59 1020.55 1020.47 1020.47 1020.43 1020.39 1020.27 1020.15 1020.15 1020.23
1017.39 1017.59 1017.79 1018.03 1018.11 1018.27 1018.43 1018.43 1018.39 1018.43 1018.51 1018.63 1018.79 1018.91 1018.83 1018.83 1018.87 1018.95 1019.19 1019.39 1019.39 1019.63 1019.71 1019.71 1019.83 1020.11 1020.07 1020.23 1020.47 1020.51 1020.39 1020.39 1020.43 1020.47 1020.47 1020.51 1020.39 1020.23 1020.03 1020.03 1019.87 1019.71
1017.27 1017.47 1017.79 1017.99 1018.27 1018.39 1018.51 1018.51 1018.47 1018.47 1018.51 1018.79 1018.95 1019.03 1019.07 1019.07 1019.11 1019.11 1019.19 1019.39 1019.67 1019.79 1019.87 1019.79 1019.79 1019.63 1019.75 1020.11 1020.19 1020.19 1020.23 1020.15 1020.11 1020.31 1020.35 1020.39 1020.55 1020.51 1020.23 1019.91 1019.67 1019.55
1017.47 1017.59 1017.75 1018.15 1018.23 1018.31 1018.43 1018.59 1018.71 1018.59 1018.67 1018.87 1019.03 1019.15 1019.27 1019.35 1019.51 1019.63 1019.55 1019.35 1019.43 1019.59 1019.75 1019.75 1019.55 1020.31 1020.55 1020.43 1020.59 1020.67 1020.51 1020.31 1020.39 1020.35 1020.27 1020.35 1020.35 1020.43 1020.39 1020.07 1019.63 1019.31
1017.31 1017.51 1017.87 1018.03 1018.15 1018.35 1018.47 1018.59 1018.75 1018.99 1019.15 1019.27 1019.27 1019.31 1019.43 1019.39 1019.59 1019.67 1019.67 1019.47 1019.31 1019.35 1019.43 1019.39 1019.95 1020.99 1020.91 1020.99 1020.99 1020.95 1020.83 1020.43 1019.95 1019.95 1019.83 1019.87 1019.83 1019.87 1019.87 1019.71 1019.59 1019.39
1017.55 1017.67 1017.83 1018.03 1018.23 1018.35 1018.51 1018.63 1018.91 1019.15 1019.35 1019.39 1019.51 1019.39 1019.39 1019.63 1019.63 1019.63 1019.79 1019.67 1019.51 1019.75 1019.63 1019.59 1020.31 1021.03 1021.15 1021.23 1021.19 1021.11 1021.03 1020.87 1020.11 1019.67 1019.71 1019.63 1019.55 1019.59 1019.59 1019.71 1019.67 1019.71
1017.95 1018.07 1018.27 1018.31 1018.35 1018.47 1018.55 1018.87 1019.19 1019.67 1019.67 1019.67 1019.63 1019.47 1019.63 1019.67 1019.47 1019.63 1019.63 1019.71 1019.67 1019.75 1019.99 1020.47 1020.91 1021.51 1021.55 1021.39 1021.19 1021.11 1021.03 1020.95 1020.23 1019.67 1019.51 1019.39 1019.43 1019.43 1019.31 1019.35 1019.43 1019.47
1017.75 1017.99 1018.27 1018.51 1018.71 1018.75 1018.91 1019.35 1019.59 1019.75 1019.87 1019.91 1019.55 1019.31 1019.39 1019.59 1019.51 1019.55 1019.63 1019.67 1019.67 1019.83 1020.11 1020.75 1021.51 1021.95 1021.75 1021.51 1021.31 1021.11 1020.91 1020.87 1019.99 1019.35 1019.03 1019.07 1019.19 1019.23 1019.43 1019.47 1019.43 1019.31
1017.63 1018.03 1018.35 1018.51 1018.71 1018.95 1019.23 1019.43 1019.47 1019.43 1019.79 1020.31 1020.11 1019.75 1019.35 1019.11 1019.31 1019.35 1019.75 1019.87 1019.83 1019.95 1020.43 1020.99 1021.55 1022.07 1021.87 1021.63 1021.43 1021.15 1021.03 1020.47 1019.95 1019.79 1019.51 1019.39 1019.39 1019.47 1019.51 1019.39 1019.35 1019.39
1017.87 1018.19 1018.47 1018.71 1019.03 1019.43 1019.75 1019.79 1019.75 1019.79 1019.91 1020.19 1020.31 1019.91 1019.71 1019.71 1019.71 1019.79 1019.87 1020.07 1020.31 1020.51 1020.83 1021.27 1021.63 1022.11 1021.99 1021.71 1021.43 1021.23 1020.87 1020.19 1019.87 1019.91 1019.87 1019.83 1019.71 1019.71 1019.51 1019.27 1019.19 1019.43
1018.27 1018.43 1018.75 1018.99 1019.27 1019.59 1019.67 1019.71 1019.83 1020.15 1020.39 1020.31 1020.23 1019.99 1019.99 1020.11 1020.15 1020.31 1020.39 1020.43 1020.71 1020.91 1020.87 1021.39 1021.79 1022.23 1022.11 1021.79 1021.51 1021.27 1020.95 1020.43 1020.07 1020.03 1020.07 1019.99 1019.83 1019.51 1019.27 1019.27 1019.87 1020.15
1018.23 1018.39 1018.71 1019.07 1019.39 1019.55 1019.47 1019.75 1020.03 1020.19 1020.47 1020.59 1020.51 1020.31 1020.39 1020.43 1020.51 1020.79 1021.11 1021.23 1021.39 1021.47 1021.63 1021.59 1021.79 1022.15 1022.35 1022.07 1021.71 1021.43 1020.99 1020.35 1020.27 1020.51 1020.91 1020.35 1020.03 1019.95 1019.75 1019.79 1020.39 1020.79
1018.71 1018.87 1018.99 1019.23 1019.55 1019.83 1019.99 1020.15 1020.35 1020.55 1020.83 1021.03 1021.03 1020.87 1020.99 1021.15 1021.27 1021.35 1021.59 1021.83 1021.79 1021.91 1022.03 1022.07 1022.27 1022.39 1022.63 1022.51 1022.15 1021.75 1021.39 1020.83 1020.67 1020.67 1020.75 1020.75 1020.59 1020.87 1020.95 1020.59 1020.47 1020.87
Wind_Speed
7 6 6 5 5 4 4 4 4 4 4 4 4 3 3 3 2 2 3 3 3 4 4 3 3 3 3 3 3 3 2 2 3 2 2 2 2 3 3 2 3 3
8 7 5 5 4 4 4 4 4 4 3 3 3 2 2 2 3 4 4 4 4 4 4 4 3 3 3 3 4 3 3 3 4 3 2 2 3 3 4 3 3 3
9 8 8 8 7 7 7 6 4 4 4 4 4 4 3 4 4 3 3 4 4 4 4 4 3 4 4 4 3 4 4 4 4 4 2 3 3 2 3 4 3 2
10 9 8 8 7 6 6 5 5 4 4 4 5 5 4 3 3 4 4 5 4 4 4 4 4 4 5 4 4 4 4 4 4 3 3 3 3 4 4 3 3 3
10 9 8 7 7 6 5 5 6 6 6 4 5 5 4 4 4 5 5 6 5 5 5 5 5 5 4 4 5 4 4 4 4 4 4 4 4 4 5 3 3 4
9 9 9 8 7 6 6 6 6 6 6 7 6 5 6 6 6 6 6 7 7 6 6 6 6 6 6 6 5 5 4 4 3 4 4 4 5 4 3 2 3 4
9 9 10 9 9 8 7 6 6 6 6 6 6 6 5 6 6 6 6 6 6 6 6 5 5 5 5 5 5 5 5 4 3 3 4 4 4 4 4 4 4 4
10 9 9 9 10 9 9 8 7 7 7 6 6 6 6 7 7 7 6 6 6 6 5 5 5 5 5 5 5 5 6 5 6 6 5 5 4 5 4 4 3 4
10 10 9 11 11 10 10 10 9 8 7 7 7 7 7 7 7 7 7 6 6 5 5 5 5 6 6 5 5 5 5 5 4 5 6 6 6 5 5 4 5 5
10 9 11 11 11 10 10 10 9 9 9 8 8 7 7 7 7 7 7 7 6 6 6 6 6 6 6 6 6 6 6 6 5 5 5 5 5 5 5 5 5 5
11 11 10 11 11 11 11 10 10 9 8 9 9 8 7 7 7 6 6 7 7 7 7 7 7 7 6 6 6 6 6 6 6 6 6 6 6 5 5 5 5 5
10 10 10 11 11 10 11 10 10 10 9 8 9 8 8 7 8 7 7 7 7 7 7 7 7 7 7 7 7 7 7 6 6 6 6 6 6 6 6 6 6 5
9 9 8 9 9 9 8 9 9 9 10 9 9 9 9 9 9 8 7 8 8 8 7 8 7 7 7 7 7 7 6 7 7 7 6 6 6 6 6 6 6 6
9 9 8 8 7 7 7 8 8 8 8 8 8 9 9 9 9 9 9 8 8 8 8 7 7 7 7 7 7 7 7 7 7 6 6 6 5 6 6 6 6 6
9 8 7 7 8 7 7 7 7 7 7 7 7 7 8 9 9 8 8 8 8 7 8 7 8 8 7 7 8 7 6 6 6 6 7 6 6 6 6 6 6 6
8 7 7 7 7 7 7 7 8 8 8 8 7 7 7 6 6 6 6 7 6 7 6 7 7 7 6 2 5 3 5 5 5 5 5 5 5 5 6 7 7 7
7 7 7 7 6 6 6 6 6 6 6 6 6 6 6 5 6 7 7 7 7 7 8 8 6 6 11 5 3 5 6 6 6 6 6 7 7 7 7 7 7 7
7 8 8 8 7 6 5 5 4 4 4 4 5 6 5 6 6 7 6 7 6 7 7 8 4 9 8 9 7 5 7 7 7 7 7 7 8 7 6 6 6 6
7 8 8 7 7 6 5 4 4 4 4 4 4 3 4 6 6 5 6 6 6 4 6 1 5 11 9 7 6 5 5 8 7 8 7 7 7 7 6 5 5 5
7 7 5 4 3 4 5 3 4 4 4 3 1 2 3 5 7 7 6 5 5 4 2 4 6 10 9 7 5 5 4 6 7 8 8 7 6 6 6 6 5 5
9 9 9 8 7 7 7 8 10 7 6 4 5 6 6 7 7 7 5 5 4 4 3 5 6 12 10 10 8 6 4 5 7 8 8 6 6 5 4 5 4 5
6 6 6 7 7 7 9 10 10 8 8 4 2 0 2 5 5 4 5 4 3 4 4 4 7 11 10 10 9 8 7 5 5 6 6 5 4 3 3 3 4 4
8 8 9 9 9 9 8 8 8 6 7 6 6 5 5 3 4 4 3 3 5 5 4 4 7 11 11 11 10 10 7 5 5 4 5 5 4 3 4 3 2 2
9 9 9 9 7 7 8 7 6 4 4 4 5 7 8 7 6 6 5 4 6 5 4 5 7 11 13 13 12 12 9 6 4 4 4 5 4 4 3 1 7 13
10 10 10 8 8 7 7 7 5 7 6 5 6 7 8 6 6 8 9 7 7 7 8 7 8 10 13 13 14 13 10 5 3 3 7 3 4 3 2 2 5 11
9 10 10 10 10 9 8 6 6 6 7 7 7 6 7 7 7 6 8 7 7 7 7 8 9 9 11 14 14 15 14 8 5 3 1 3 3 3 3 1 4 5
Wind_Direction
193 192 193 194 197 212 213 204 210 202 217 224 209 197 205 196 208 213 215 192 192 201 186 201 201 209 199 198 202 222 231 216 268 168 224 265 282 285 293 309 274 262
197 197 194 195 188 192 205 219 210 229 206 229 248 204 193 193 193 205 204 210 202 201 201 198 203 209 218 208 198 221 220 219 233 221 204 230 264 273 259 263 283 308
197 195 196 199 195 193 204 196 211 217 216 215 200 213 196 190 203 191 203 206 208 201 190 211 202 207 209 211 210 220 217 224 241 241 227 235 258 255 278 280 268 271
199 203 201 203 205 193 203 200 192 214 228 198 214 194 209 188 182 185 193 201 206 212 210 203 210 204 201 204 210 227 220 229 233 259 253 255 250 260 252 249 259 264
198 201 207 207 205 203 199 200 208 189 209 202 204 192 198 208 200 191 190 188 206 211 203 208 200 208 201 206 209 227 226 227 216 223 244 250 253 246 256 248 259 263
197 201 203 208 201 200 205 198 205 205 204 192 211 199 199 194 209 203 191 195 196 210 207 202 198 204 204 199 210 221 227 239 190 200 228 246 262 260 267 255 246 247
197 198 204 203 206 197 213 206 200 208 203 212 187 209 200 192 199 202 199 204 210 205 207 200 202 205 207 201 206 209 219 237 241 204 225 239 235 249 250 248 248 259
203 198 201 207 209 201 208 202 204 197 201 208 202 197 204 197 193 196 199 204 212 206 211 202 196 208 218 209 211 211 223 212 211 217 221 232 243 240 237 244 227 243
205 201 200 206 209 208 206 203 195 201 197 204 213 196 196 210 191 202 187 198 214 201 201 208 200 209 215 219 216 217 228 241 230 211 219 228 223 225 232 227 229 233
201 208 206 205 206 210 210 212 202 194 194 205 211 213 193 202 208 203 187 194 204 201 201 211 202 211 214 208 215 225 229 230 238 239 237 232 234 238 232 227 231 231
200 203 207 211 210 208 208 211 215 210 192 204 207 213 205 194 198 210 196 195 206 200 203 208 207 210 216 222 215 215 220 225 225 224 228 234 238 241 243 245 246 248
201 203 206 208 213 214 211 211 212 216 218 204 213 211 205 205 196 203 200 202 214 207 207 207 213 216 215 228 225 213 213 224 219 226 228 229 234 228 231 231 233 232
199 206 207 209 206 217 217 211 215 214 217 220 213 217 211 212 202 203 201 205 207 216 214 207 213 218 218 221 231 231 223 224 229 222 223 230 226 236 235 230 229 227
192 200 210 214 215 210 221 224 219 218 218 223 224 216 221 220 221 208 202 209 212 216 218 219 210 218 215 221 227 232 225 220 230 237 232 224 225 228 238 237 229 229
185 186 196 205 214 211 217 224 224 224 224 228 224 232 226 226 226 232 223 216 218 222 227 228 220 213 218 211 218 222 242 238 234 237 237 237 241 240 234 235 236 237
177 170 173 186 199 208 208 213 219 221 219 215 222 227 236 244 247 241 241 227 224 225 230 236 232 228 198 91 349 281 234 243 235 237 254 260 256 252 249 242 238 244
175 174 164 169 184 195 199 206 220 227 224 221 221 228 237 225 234 237 238 239 231 225 223 228 235 38 22 93 176 258 270 246 243 236 229 232 235 233 245 250 250 245
185 184 188 187 192 191 179 185 197 206 217 227 235 225 215 230 227 232 241 246 234 235 234 233 95 35 22 15 331 273 259 266 248 243 236 231 237 242 245 252 255 255
192 199 201 202 203 200 190 174 176 181 205 210 218 246 241 230 230 223 219 229 242 238 250 87 63 34 8 6 353 327 278 268 264 254 251 246 247 243 247 258 267 272
172 184 182 172 142 193 188 163 107 67 64 56 339 220 237 236 223 215 220 228 231 227 131 60 50 12 348 345 349 329 303 245 257 256 249 255 256 256 257 247 247 262
180 186 184 170 158 165 147 127 124 118 109 131 164 168 191 210 227 212 214 217 201 172 166 81 57 13 356 349 345 324 324 271 263 266 257 243 234 242 249 271 273 264
170 158 155 160 156 135 133 140 150 154 147 175 175 349 210 186 189 195 186 212 193 168 135 95 59 20 2 359 349 339 323 257 252 263 268 266 257 256 258 252 256 269
119 131 134 138 137 137 129 127 133 130 128 147 158 151 139 125 154 170 154 139 110 105 118 84 61 22 9 11 359 348 307 261 254 261 264 265 255 248 244 234 258 10
111 106 114 117 112 118 126 117 99 106 141 167 143 118 103 95 86 81 71 100 99 112 120 96 67 38 21 18 11 359 336 292 268 258 253 257 258 242 253 313 61 52
117 120 122 119 115 117 118 121 130 123 96 80 79 81 87 70 58 71 69 56 72 86 82 76 69 47 26 21 17 12 357 321 314 301 276 266 277 292 353 324 100 66
91 94 97 96 98 89 91 88 92 95 88 81 73 72 77 72 77 82 84 74 82 76 64 52 57 47 29 20 22 18 7 359 20 334 356 355 339 311 259 237 101 107